Content
SEND FEEDBACK

Daily
Averages
Monthly
Summary
United States of America

FAGASA, AMERICAN SAMOA


Home > North America > United States > American Samoa
Elevation: 460 feet     Latitude: 14 17S     Longitude: 170 42W

WEATHER
 
SELECT A DAY
Number of Records: 180,050;   Date Range: 6/30/96 - 9/3/14
 
SHARE

PRINT THIS DATA

[ ← Previous Day ]
WEATHER ALMANAC - JANUARY 31, 2013
[ Next Day → ]
[ °C ]   °F
Weather ElementAverageHighLow
Temperature79.2 °F81.9 °F (5:58 am)77 °F (10:15 am)
Dewpoint74.5 °F76.5 °F (5:58 am)71.8 °F (6:50 pm)
Humidity85.4 %94 % (10:15 am)78 % (1:59 pm)
Barometer29.79 in29.85 in (9:53 am)29.73 in (7:50 pm)
Wind Speed7.1 mph16.1 mph (1:00 am)
Wind Gust29.9 mph (1:59 pm)
Weather ElementAverage
Visibility8.9 mi
Wind DirectionSSW (207.8 °)

Weather ElementTotal
Precipitation---
Cooling Degree Days14.5 (Base 65)
Growing Degree Days29.5 (Base 50)
Averaged from 27 records on January 31, 2013
WEATHER CONDITIONS BREAKOUT
WIND DIRECTION BREAKOUT
WEATHER BY HOUR - JANUARY 31, 2013
[ °C ]   °F
Local TimeTemperatureDewpointHumidityBarometerVisibilityWind DirectionWind SpeedGust SpeedPrecipitationEventsConditions
1:00 AM80.0 °F76.0 °F82 %29.79 in10.0 miNorth (350°)16.1 mphPartly Cloudy
1:58 AM80.8 °F75.6 °F84 %29.77 in10.0 miNNW (340°)15.0 mph25.3 mphOvercast
2:56 AM80.8 °F76.1 °F86 %29.76 in10.0 miNW (320°)13.8 mphOvercast
3:52 AM79.7 °F74.5 °F84 %29.74 in10.0 miNNW (330°)8.1 mphMostly Cloudy
4:57 AM80.8 °F75.9 °F85 %29.77 in10.0 miNorth (350°)8.1 mphOvercast
5:58 AM81.9 °F76.5 °F84 %29.79 in10.0 miNW (320°)4.6 mphRainLight Rain Showers
6:53 AM78.1 °F74.5 °F89 %29.80 in4.0 miNW (320°)9.2 mphRainHeavy Rain Showers
7:00 AM78.0 °F74.0 °F86 %29.80 in4.0 miNW (320°)9.2 mphRainLight Rain Showers
7:57 AM79.9 °F73.9 °F82 %29.81 in10.0 miVariable3.5 mphRainLight Rain Showers
8:53 AM79.9 °F75.6 °F87 %29.83 in8.0 miSW (220°)3.5 mphRainLight Rain Showers
9:53 AM78.6 °F74.8 °F88 %29.85 in7.0 miSW (220°)3.5 mphRainLight Rain Showers
10:15 AM77.0 °F75.2 °F94 %29.85 in2.0 miNW (320°)5.8 mphRainRain Showers
10:59 AM77.5 °F74.7 °F91 %29.85 in4.0 miWSW (240°)5.8 mphRainRain Showers
11:53 AM77.9 °F75.0 °F91 %29.83 in6.0 miCalmRainLight Rain Showers
12:52 PM78.8 °F74.7 °F87 %29.80 in10.0 miWNW (300°)11.5 mphRainLight Rain Showers
1:00 PM79.0 °F75.0 °F83 %29.80 in10.0 miWNW (300°)11.5 mphRainLight Rain Showers
1:59 PM80.1 °F72.5 °F78 %29.74 in10.0 miNW (320°)13.8 mph29.9 mphOvercast
2:57 PM79.7 °F74.8 °F85 %29.79 in10.0 miWest (260°)8.1 mphRainLight Rain Showers
3:50 PM79.0 °F74.8 °F87 %29.78 in10.0 miWest (260°)9.2 mph19.6 mphRainLight Rain Showers
4:53 PM78.3 °F73.9 °F87 %29.76 in12.0 miWest (270°)10.4 mphOvercast
5:51 PM78.3 °F72.1 °F81 %29.75 in11.0 miWSW (250°)5.8 mphOvercast
6:50 PM78.4 °F71.8 °F80 %29.75 in11.0 miVariable3.5 mphOvercast
7:50 PM78.8 °F73.6 °F84 %29.73 in10.0 miCalmOvercast
8:57 PM77.7 °F74.1 °F89 %29.75 in10.0 miVariable5.8 mphOvercast
9:50 PM79.2 °F73.4 °F82 %29.78 in10.0 miVariable4.6 mphOvercast
10:50 PM78.4 °F74.3 °F87 %29.77 in10.0 miCalmOvercast
11:50 PM80.6 °F75.0 °F83 %29.76 in10.0 miCalmOvercast
Hourly data recorded from NSTU, located miles away from Fagasa, American Samoa







STORIES FROM OUR PARTNERS